******** Week 314 almanac for PRN-01 ******** ID: 01 Health: 000 Eccentricity: 0.4868507385E-003 Time of Applicability(s): 589824.0000 Orbital Inclination(rad): 0.9596631746 Rate of Right Ascen(r/s): -0.8057478483E-008 SQRT(A) (m 1/2): 5153.678711 Right Ascen at Week(rad): 0.2617632604E+001 Argument of Perigee(rad): 0.118705995 Mean Anom(rad): -0.2931190111E+001 Af0(s): 0.2288818359E-003 Af1(s/s): 0.1455191523E-010 week: 314 ******** Week 314 almanac for PRN-02 ******** ID: 02 Health: 000 Eccentricity: 0.1641988754E-001 Time of Applicability(s): 589824.0000 Orbital Inclination(rad): 0.9658470346 Rate of Right Ascen(r/s): -0.7943188009E-008 SQRT(A) (m 1/2): 5153.670898 Right Ascen at Week(rad): 0.2453498532E+001 Argument of Perigee(rad): -1.000738581 Mean Anom(rad): -0.1286608410E+001 Af0(s): -0.1907348633E-003 Af1(s/s): 0.1091393642E-010 week: 314 ******** Week 314 almanac for PRN-03 ******** ID: 03 Health: 000 Eccentricity: 0.6018161774E-002 Time of Applicability(s): 589824.0000 Orbital Inclination(rad): 0.9893900445 Rate of Right Ascen(r/s): -0.7703178011E-008 SQRT(A) (m 1/2): 5153.502441 Right Ascen at Week(rad): -0.2688814780E+001 Argument of Perigee(rad): 1.137877437 Mean Anom(rad): 0.1393339917E+001 Af0(s): 0.6866455078E-003 Af1(s/s): 0.3637978807E-011 week: 314 ******** Week 314 almanac for PRN-04 ******** ID: 04 Health: 000 Eccentricity: 0.3264427185E-002 Time of Applicability(s): 589824.0000 Orbital Inclination(rad): 0.9671473230 Rate of Right Ascen(r/s): -0.7691748964E-008 SQRT(A) (m 1/2): 5153.587891 Right Ascen at Week(rad): -0.1613841416E+001 Argument of Perigee(rad): -2.895647521 Mean Anom(rad): -0.2046918347E+001 Af0(s): 0.5559921265E-003 Af1(s/s): 0.3637978807E-011 week: 314 ******** Week 314 almanac for PRN-05 ******** ID: 05 Health: 000 Eccentricity: 0.5698680878E-002 Time of Applicability(s): 589824.0000 Orbital Inclination(rad): 0.9762014050 Rate of Right Ascen(r/s): -0.7828897534E-008 SQRT(A) (m 1/2): 5153.741211 Right Ascen at Week(rad): -0.2744367280E+001 Argument of Perigee(rad): 1.326954801 Mean Anom(rad): -0.1398048968E+001 Af0(s): -0.2079010010E-003 Af1(s/s): 0.0000000000E+000 week: 314 ******** Week 314 almanac for PRN-06 ******** ID: 06 Health: 000 Eccentricity: 0.3435611725E-002 Time of Applicability(s): 589824.0000 Orbital Inclination(rad): 0.9889106755 Rate of Right Ascen(r/s): -0.7771752296E-008 SQRT(A) (m 1/2): 5153.510742 Right Ascen at Week(rad): 0.2559226360E+001 Argument of Perigee(rad): -0.642347714 Mean Anom(rad): 0.2561465912E+001 Af0(s): -0.3137588501E-003 Af1(s/s): -0.2182787284E-010 week: 314 ******** Week 314 almanac for PRN-07 ******** ID: 07 Health: 000 Eccentricity: 0.1955270767E-001 Time of Applicability(s): 589824.0000 Orbital Inclination(rad): 0.9505072268 Rate of Right Ascen(r/s): -0.7863184676E-008 SQRT(A) (m 1/2): 5153.669922 Right Ascen at Week(rad): -0.6026260004E+000 Argument of Perigee(rad): -2.056531568 Mean Anom(rad): 0.1769520617E+001 Af0(s): -0.2193450928E-004 Af1(s/s): -0.3637978807E-011 week: 314 ******** Week 314 almanac for PRN-08 ******** ID: 08 Health: 000 Eccentricity: 0.1057195663E-001 Time of Applicability(s): 589824.0000 Orbital Inclination(rad): 0.9479785553 Rate of Right Ascen(r/s): -0.7966046104E-008 SQRT(A) (m 1/2): 5153.729004 Right Ascen at Week(rad): 0.1451044708E+001 Argument of Perigee(rad): 0.450294892 Mean Anom(rad): -0.1783457896E+001 Af0(s): 0.5102157593E-003 Af1(s/s): 0.3637978807E-011 week: 314 ******** Week 314 almanac for PRN-09 ******** ID: 09 Health: 000 Eccentricity: 0.3006458282E-002 Time of Applicability(s): 589824.0000 Orbital Inclination(rad): 0.9610473526 Rate of Right Ascen(r/s): -0.7760323249E-008 SQRT(A) (m 1/2): 5153.678711 Right Ascen at Week(rad): -0.1675845174E+001 Argument of Perigee(rad): 2.016771655 Mean Anom(rad): -0.1148925020E+001 Af0(s): 0.6361007690E-003 Af1(s/s): 0.1091393642E-010 week: 314 ******** Week 314 almanac for PRN-10 ******** ID: 10 Health: 000 Eccentricity: 0.1010560989E-001 Time of Applicability(s): 589824.0000 Orbital Inclination(rad): 0.9889885729 Rate of Right Ascen(r/s): -0.7680319916E-008 SQRT(A) (m 1/2): 5153.609863 Right Ascen at Week(rad): -0.2691325475E+001 Argument of Perigee(rad): -2.310157465 Mean Anom(rad): 0.2756004711E+000 Af0(s): -0.3957748413E-003 Af1(s/s): -0.1455191523E-010 week: 314 ******** Week 314 almanac for PRN-11 ******** ID: 11 Health: 000 Eccentricity: 0.1701354980E-002 Time of Applicability(s): 589824.0000 Orbital Inclination(rad): 0.9656612792 Rate of Right Ascen(r/s): -0.8000333246E-008 SQRT(A) (m 1/2): 5153.596680 Right Ascen at Week(rad): 0.2584996189E+001 Argument of Perigee(rad): -2.384759639 Mean Anom(rad): -0.2486581359E+001 Af0(s): -0.7257461548E-003 Af1(s/s): 0.3637978807E-011 week: 314 ******** Week 314 almanac for PRN-12 ******** ID: 12 Health: 000 Eccentricity: 0.8910179138E-002 Time of Applicability(s): 589824.0000 Orbital Inclination(rad): 0.9608196523 Rate of Right Ascen(r/s): -0.7748894201E-008 SQRT(A) (m 1/2): 5153.650879 Right Ascen at Week(rad): 0.5135161725E+000 Argument of Perigee(rad): 1.499418658 Mean Anom(rad): 0.1040479020E+001 Af0(s): -0.5807876587E-003 Af1(s/s): 0.0000000000E+000 week: 314 ******** Week 314 almanac for PRN-13 ******** ID: 13 Health: 000 Eccentricity: 0.9039878845E-002 Time of Applicability(s): 589824.0000 Orbital Inclination(rad): 0.9731993566 Rate of Right Ascen(r/s): -0.7646032774E-008 SQRT(A) (m 1/2): 5153.635742 Right Ascen at Week(rad): -0.1505049745E+001 Argument of Perigee(rad): 0.953682522 Mean Anom(rad): -0.1942793409E+001 Af0(s): 0.7009506226E-003 Af1(s/s): 0.0000000000E+000 week: 314 ******** Week 314 almanac for PRN-14 ******** ID: 14 Health: 000 Eccentricity: 0.5649089813E-002 Time of Applicability(s): 589824.0000 Orbital Inclination(rad): 0.9441675718 Rate of Right Ascen(r/s): -0.7943188009E-008 SQRT(A) (m 1/2): 5153.656738 Right Ascen at Week(rad): 0.4639273224E+000 Argument of Perigee(rad): -2.829480743 Mean Anom(rad): 0.9298294204E+000 Af0(s): 0.6332397461E-003 Af1(s/s): 0.7275957614E-011 week: 314 ******** Week 314 almanac for PRN-15 ******** ID: 15 Health: 000 Eccentricity: 0.1619434357E-001 Time of Applicability(s): 589824.0000 Orbital Inclination(rad): 0.9384990334 Rate of Right Ascen(r/s): -0.8000333246E-008 SQRT(A) (m 1/2): 5153.738770 Right Ascen at Week(rad): -0.1812099444E+001 Argument of Perigee(rad): 1.406678359 Mean Anom(rad): -0.2765440416E+001 Af0(s): 0.2870559692E-003 Af1(s/s): 0.3637978807E-011 week: 314 ******** Week 314 almanac for PRN-16 ******** ID: 16 Health: 000 Eccentricity: 0.1447772980E-001 Time of Applicability(s): 589824.0000 Orbital Inclination(rad): 0.9601125830 Rate of Right Ascen(r/s): -0.7737465154E-008 SQRT(A) (m 1/2): 5153.671387 Right Ascen at Week(rad): 0.5309483512E+000 Argument of Perigee(rad): 0.883584918 Mean Anom(rad): -0.6928720825E+000 Af0(s): -0.2861022949E-005 Af1(s/s): 0.7275957614E-011 week: 314 ******** Week 314 almanac for PRN-17 ******** ID: 17 Health: 000 Eccentricity: 0.1307296753E-001 Time of Applicability(s): 589824.0000 Orbital Inclination(rad): 0.9637258268 Rate of Right Ascen(r/s): -0.7806039439E-008 SQRT(A) (m 1/2): 5153.621094 Right Ascen at Week(rad): 0.1550903637E+001 Argument of Perigee(rad): -1.218876566 Mean Anom(rad): -0.1693133167E+001 Af0(s): 0.3204345703E-003 Af1(s/s): -0.1818989404E-010 week: 314 ******** Week 314 almanac for PRN-18 ******** ID: 18 Health: 000 Eccentricity: 0.4967689514E-002 Time of Applicability(s): 589824.0000 Orbital Inclination(rad): 0.9738225363 Rate of Right Ascen(r/s): -0.7920329914E-008 SQRT(A) (m 1/2): 5153.651367 Right Ascen at Week(rad): 0.2558656735E+001 Argument of Perigee(rad): -2.955408732 Mean Anom(rad): 0.2571987312E+001 Af0(s): -0.6351470947E-003 Af1(s/s): 0.3637978807E-011 week: 314 ******** Week 314 almanac for PRN-19 ******** ID: 19 Health: 000 Eccentricity: 0.1040410995E-001 Time of Applicability(s): 589824.0000 Orbital Inclination(rad): 0.9629348680 Rate of Right Ascen(r/s): -0.7794610391E-008 SQRT(A) (m 1/2): 5153.580078 Right Ascen at Week(rad): 0.1595053522E+001 Argument of Perigee(rad): 2.746093383 Mean Anom(rad): 0.1754101039E+000 Af0(s): 0.6208419800E-003 Af1(s/s): 0.3637978807E-011 week: 314 ******** Week 314 almanac for PRN-20 ******** ID: 20 Health: 000 Eccentricity: 0.3528118134E-002 Time of Applicability(s): 589824.0000 Orbital Inclination(rad): 0.9583568941 Rate of Right Ascen(r/s): -0.8034620388E-008 SQRT(A) (m 1/2): 5153.703125 Right Ascen at Week(rad): -0.2878824291E+001 Argument of Perigee(rad): -2.268861324 Mean Anom(rad): 0.2827488366E+001 Af0(s): 0.3652572632E-003 Af1(s/s): 0.0000000000E+000 week: 314 ******** Week 314 almanac for PRN-22 ******** ID: 22 Health: 000 Eccentricity: 0.1317787170E-001 Time of Applicability(s): 589824.0000 Orbital Inclination(rad): 0.9594953954 Rate of Right Ascen(r/s): -0.7771752296E-008 SQRT(A) (m 1/2): 5153.606445 Right Ascen at Week(rad): 0.5342627384E+000 Argument of Perigee(rad): -1.063340427 Mean Anom(rad): -0.1185909087E+001 Af0(s): -0.1020431519E-003 Af1(s/s): 0.0000000000E+000 week: 314 ******** Week 314 almanac for PRN-23 ******** ID: 23 Health: 000 Eccentricity: 0.5112171173E-002 Time of Applicability(s): 589824.0000 Orbital Inclination(rad): 0.9840930171 Rate of Right Ascen(r/s): -0.7748894201E-008 SQRT(A) (m 1/2): 5153.600098 Right Ascen at Week(rad): -0.2721878133E+001 Argument of Perigee(rad): -2.844309349 Mean Anom(rad): 0.1468178030E+001 Af0(s): 0.4625320435E-003 Af1(s/s): 0.7275957614E-011 week: 314 ******** Week 314 almanac for PRN-24 ******** ID: 24 Health: 000 Eccentricity: 0.1660299301E-001 Time of Applicability(s): 589824.0000 Orbital Inclination(rad): 0.9342506257 Rate of Right Ascen(r/s): -0.8057478483E-008 SQRT(A) (m 1/2): 5153.617676 Right Ascen at Week(rad): -0.7054457814E+000 Argument of Perigee(rad): 1.056679070 Mean Anom(rad): 0.2718034193E+001 Af0(s): -0.4186630249E-003 Af1(s/s): 0.7275957614E-011 week: 314 ******** Week 314 almanac for PRN-25 ******** ID: 25 Health: 000 Eccentricity: 0.1231861115E-001 Time of Applicability(s): 589824.0000 Orbital Inclination(rad): 0.9490091987 Rate of Right Ascen(r/s): -0.7886042771E-008 SQRT(A) (m 1/2): 5153.584961 Right Ascen at Week(rad): 0.4232764570E+000 Argument of Perigee(rad): 1.124157372 Mean Anom(rad): 0.9369952379E+000 Af0(s): 0.4901885986E-003 Af1(s/s): 0.0000000000E+000 week: 314 ******** Week 314 almanac for PRN-26 ******** ID: 26 Health: 000 Eccentricity: 0.9895801544E-002 Time of Applicability(s): 589824.0000 Orbital Inclination(rad): 0.9297865019 Rate of Right Ascen(r/s): -0.8080336578E-008 SQRT(A) (m 1/2): 5153.751465 Right Ascen at Week(rad): 0.3547308102E+000 Argument of Perigee(rad): 0.624427178 Mean Anom(rad): 0.5695652689E-001 Af0(s): -0.1945495605E-003 Af1(s/s): -0.2182787284E-010 week: 314 ******** Week 314 almanac for PRN-27 ******** ID: 27 Health: 000 Eccentricity: 0.1350212097E-001 Time of Applicability(s): 589824.0000 Orbital Inclination(rad): 0.9570386293 Rate of Right Ascen(r/s): -0.7874613724E-008 SQRT(A) (m 1/2): 5153.643066 Right Ascen at Week(rad): 0.1480344266E+001 Argument of Perigee(rad): 0.841086235 Mean Anom(rad): -0.1628755034E+001 Af0(s): -0.2765655518E-004 Af1(s/s): 0.0000000000E+000 week: 314 ******** Week 314 almanac for PRN-28 ******** ID: 28 Health: 000 Eccentricity: 0.2541542053E-003 Time of Applicability(s): 589824.0000 Orbital Inclination(rad): 0.9615087452 Rate of Right Ascen(r/s): -0.7760323249E-008 SQRT(A) (m 1/2): 5153.538574 Right Ascen at Week(rad): -0.6319704986E+000 Argument of Perigee(rad): 0.480422859 Mean Anom(rad): 0.1585973973E+001 Af0(s): -0.5998611450E-003 Af1(s/s): -0.7275957614E-011 week: 314 ******** Week 314 almanac for PRN-29 ******** ID: 29 Health: 000 Eccentricity: 0.3172397614E-002 Time of Applicability(s): 589824.0000 Orbital Inclination(rad): 0.9662724746 Rate of Right Ascen(r/s): -0.7794610391E-008 SQRT(A) (m 1/2): 5153.619629 Right Ascen at Week(rad): 0.1566786106E+001 Argument of Perigee(rad): 2.628129287 Mean Anom(rad): -0.1733572062E+001 Af0(s): -0.5159378052E-003 Af1(s/s): 0.3637978807E-011 week: 314 ******** Week 314 almanac for PRN-30 ******** ID: 30 Health: 000 Eccentricity: 0.7633686066E-002 Time of Applicability(s): 589824.0000 Orbital Inclination(rad): 0.9356887327 Rate of Right Ascen(r/s): -0.8034620388E-008 SQRT(A) (m 1/2): 5153.637207 Right Ascen at Week(rad): -0.6069021216E+000 Argument of Perigee(rad): -2.388212594 Mean Anom(rad): 0.1574005478E+001 Af0(s): -0.1659393311E-003 Af1(s/s): 0.1091393642E-010 week: 314 ******** Week 314 almanac for PRN-31 ******** ID: 31 Health: 000 Eccentricity: 0.1057481766E-001 Time of Applicability(s): 589824.0000 Orbital Inclination(rad): 0.9543961077 Rate of Right Ascen(r/s): -0.7840326581E-008 SQRT(A) (m 1/2): 5153.592285 Right Ascen at Week(rad): -0.5797582267E+000 Argument of Perigee(rad): 0.813129285 Mean Anom(rad): 0.8201464235E+000 Af0(s): -0.2098083496E-003 Af1(s/s): 0.0000000000E+000 week: 314 ******** Week 314 almanac for PRN-32 ******** ID: 32 Health: 000 Eccentricity: 0.8573055267E-002 Time of Applicability(s): 589824.0000 Orbital Inclination(rad): 0.9642711091 Rate of Right Ascen(r/s): -0.7737465154E-008 SQRT(A) (m 1/2): 5153.547852 Right Ascen at Week(rad): -0.1659965701E+001 Argument of Perigee(rad): -2.064443778 Mean Anom(rad): -0.1033484352E+001 Af0(s): -0.4730224609E-003 Af1(s/s): 0.1091393642E-010 week: 314